Time,TemperatureF,DewpointF,PressureIn,WindDirection,WindDirectionDegrees,WindSpeedMPH,WindSpeedGustMPH,Humidity,HourlyPrecipIn,Conditions,Clouds,dailyrainin,SoftwareType,DateUTC
2013-05-02 00:02:00,63.0,53.0,-100.00,North,0,0.0,0.0,71,-99.99,,,-99.99,,2013-05-02 05:02:00,
2013-05-02 00:12:00,62.0,53.0,-100.00,North,0,0.0,0.0,71,-99.99,,,-99.99,,2013-05-02 05:12:00,
2013-05-02 00:22:00,62.0,53.0,-100.00,North,0,0.0,0.0,73,-99.99,,,-99.99,,2013-05-02 05:22:00,
2013-05-02 00:32:00,62.0,53.0,-100.00,North,0,0.0,0.0,73,-99.99,,,-99.99,,2013-05-02 05:32:00,
2013-05-02 00:42:00,61.0,53.0,-100.00,North,0,0.0,0.0,74,-99.99,,,-99.99,,2013-05-02 05:42:00,
2013-05-02 00:52:00,61.0,53.0,-100.00,North,0,0.0,0.0,75,-99.99,,,-99.99,,2013-05-02 05:52:00,
2013-05-02 01:01:00,61.0,53.0,-100.00,North,0,0.0,0.0,75,-99.99,,,-99.99,,2013-05-02 06:01:00,
2013-05-02 01:12:00,60.0,52.0,-100.00,North,5,0.0,0.0,76,-99.99,,,-99.99,,2013-05-02 06:12:00,
2013-05-02 01:21:00,60.0,52.0,-100.00,NNE,30,0.0,0.0,76,-99.99,,,-99.99,,2013-05-02 06:21:00,
2013-05-02 01:32:00,60.0,52.0,-100.00,NNE,30,0.0,0.0,76,-99.99,,,-99.99,,2013-05-02 06:32:00,
2013-05-02 01:42:00,60.0,52.0,-100.00,NNE,30,0.0,0.0,76,-99.99,,,-99.99,,2013-05-02 06:42:00,
2013-05-02 01:52:00,58.0,52.0,-100.00,NNW,330,0.0,0.0,81,-99.99,,,-99.99,,2013-05-02 06:52:00,
2013-05-02 02:02:00,58.0,52.0,-100.00,NNW,330,0.0,0.0,81,-99.99,,,-99.99,,2013-05-02 07:02:00,
2013-05-02 02:11:00,58.0,52.0,-100.00,NW,320,0.0,0.0,83,-99.99,,,-99.99,,2013-05-02 07:11:00,
2013-05-02 02:21:00,57.0,53.0,-100.00,NNW,345,0.0,0.0,84,-99.99,,,-99.99,,2013-05-02 07:21:00,
2013-05-02 02:32:00,57.0,53.0,-100.00,NNW,345,0.0,0.0,84,-99.99,,,-99.99,,2013-05-02 07:32:00,
2013-05-02 02:42:00,57.0,53.0,-100.00,NNW,345,0.0,0.0,84,-99.99,,,-99.99,,2013-05-02 07:42:00,
2013-05-02 02:52:00,57.0,52.0,-100.00,North,0,0.0,0.0,84,-99.99,,,-99.99,,2013-05-02 07:52:00,
2013-05-02 03:02:00,57.0,52.0,-100.00,North,0,0.0,0.0,84,-99.99,,,-99.99,,2013-05-02 08:02:00,
2013-05-02 03:11:00,57.0,52.0,-100.00,NW,305,0.0,0.0,82,-99.99,,,-99.99,,2013-05-02 08:11:00,
2013-05-02 03:22:00,56.0,52.0,-100.00,NW,310,0.0,0.0,86,-99.99,,,-99.99,,2013-05-02 08:22:00,
2013-05-02 03:32:00,56.0,52.0,-100.00,NW,310,0.0,0.0,86,-99.99,,,-99.99,,2013-05-02 08:32:00,
2013-05-02 03:42:00,55.0,52.0,-100.00,NW,315,0.0,0.0,87,-99.99,,,-99.99,,2013-05-02 08:42:00,
2013-05-02 03:52:00,54.0,51.0,-100.00,WNW,295,0.0,0.0,89,-99.99,,,-99.99,,2013-05-02 08:52:00,
2013-05-02 04:02:00,54.0,51.0,-100.00,WNW,295,0.0,0.0,89,-99.99,,,-99.99,,2013-05-02 09:02:00,
2013-05-02 04:12:00,54.0,51.0,-100.00,NW,325,0.0,0.0,90,-99.99,,,-99.99,,2013-05-02 09:12:00,
2013-05-02 04:21:00,54.0,51.0,-100.00,NW,325,0.0,0.0,90,-99.99,,,-99.99,,2013-05-02 09:21:00,
2013-05-02 04:32:00,54.0,51.0,-100.00,NW,325,0.0,0.0,90,-99.99,,,-99.99,,2013-05-02 09:32:00,
2013-05-02 04:42:00,53.0,51.0,-100.00,NW,320,0.0,0.0,92,-99.99,,,-99.99,,2013-05-02 09:42:00,
2013-05-02 04:52:00,53.0,51.0,-100.00,NNW,330,0.0,0.0,93,-99.99,,,-99.99,,2013-05-02 09:52:00,
2013-05-02 05:03:00,53.0,51.0,-100.00,NNW,330,0.0,0.0,93,-99.99,,,-99.99,,2013-05-02 10:03:00,
2013-05-02 05:12:00,52.0,50.0,-100.00,NW,305,0.0,0.0,93,-99.99,,,-99.99,,2013-05-02 10:12:00,
2013-05-02 05:22:00,52.0,50.0,-100.00,North,0,0.0,0.0,93,-99.99,,,-99.99,,2013-05-02 10:22:00,
2013-05-02 05:33:00,52.0,50.0,-100.00,North,0,0.0,0.0,93,-99.99,,,-99.99,,2013-05-02 10:33:00,
2013-05-02 05:42:00,51.0,49.0,-100.00,NW,315,0.0,0.0,94,-99.99,,,-99.99,,2013-05-02 10:42:00,
2013-05-02 05:53:00,50.0,49.0,-100.00,North,0,0.0,0.0,95,-99.99,,,-99.99,,2013-05-02 10:53:00,
2013-05-02 06:02:00,50.0,49.0,-100.00,North,0,0.0,0.0,95,-99.99,,,-99.99,,2013-05-02 11:02:00,
2013-05-02 06:12:00,50.0,49.0,-100.00,North,355,0.0,0.0,96,-99.99,,,-99.99,,2013-05-02 11:12:00,
2013-05-02 06:22:00,49.0,48.0,-100.00,NW,315,0.0,0.0,96,-99.99,,,-99.99,,2013-05-02 11:22:00,
2013-05-02 06:32:00,49.0,48.0,-100.00,NW,315,0.0,0.0,96,-99.99,,,-99.99,,2013-05-02 11:32:00,
2013-05-02 06:42:00,49.0,48.0,-100.00,NW,315,0.0,0.0,98,-99.99,,,-99.99,,2013-05-02 11:42:00,
2013-05-02 06:52:00,49.0,48.0,-100.00,NW,315,0.0,0.0,98,-99.99,,,-99.99,,2013-05-02 11:52:00,
2013-05-02 07:01:00,49.0,48.0,-100.00,NW,315,0.0,0.0,98,-99.99,,,-99.99,,2013-05-02 12:01:00,
2013-05-02 07:11:00,49.0,48.0,-100.00,North,0,0.0,0.0,95,-99.99,,,-99.99,,2013-05-02 12:11:00,
2013-05-02 07:21:00,50.0,47.0,-100.00,North,355,0.0,0.0,92,-99.99,,,-99.99,,2013-05-02 12:21:00,
2013-05-02 07:32:00,50.0,47.0,-100.00,North,355,0.0,0.0,92,-99.99,,,-99.99,,2013-05-02 12:32:00,
2013-05-02 07:42:00,50.0,47.0,-100.00,North,355,0.0,0.0,92,-99.99,,,-99.99,,2013-05-02 12:42:00,
2013-05-02 07:52:00,50.0,47.0,-100.00,North,0,0.0,0.0,91,-99.99,,,-99.99,,2013-05-02 12:52:00,
2013-05-02 08:01:00,50.0,47.0,-100.00,North,0,0.0,0.0,91,-99.99,,,-99.99,,2013-05-02 13:01:00,
2013-05-02 08:11:00,50.0,47.0,-100.00,North,350,0.0,0.0,89,-99.99,,,-99.99,,2013-05-02 13:11:00,
2013-05-02 08:21:00,51.0,48.0,-100.00,NW,315,0.0,0.0,88,-99.99,,,-99.99,,2013-05-02 13:21:00,
2013-05-02 08:32:00,51.0,48.0,-100.00,NW,315,0.0,0.0,88,-99.99,,,-99.99,,2013-05-02 13:32:00,
2013-05-02 08:42:00,52.0,47.0,-100.00,North,0,0.0,0.0,85,-99.99,,,-99.99,,2013-05-02 13:42:00,
2013-05-02 08:52:00,50.0,47.0,-100.00,NNW,345,0.0,0.0,88,-99.99,,,-99.99,,2013-05-02 13:52:00,
2013-05-02 09:02:00,50.0,47.0,-100.00,NNW,345,0.0,0.0,88,-99.99,,,-99.99,,2013-05-02 14:02:00,
2013-05-02 09:11:00,50.0,47.0,-100.00,NNW,345,0.0,0.0,89,-99.99,,,-99.99,,2013-05-02 14:11:00,
2013-05-02 09:22:00,50.0,47.0,-100.00,NNW,345,0.0,0.0,90,-99.99,,,-99.99,,2013-05-02 14:22:00,
2013-05-02 09:32:00,50.0,47.0,-100.00,NNW,345,0.0,0.0,90,-99.99,,,-99.99,,2013-05-02 14:32:00,
2013-05-02 09:42:00,51.0,47.0,-100.00,North,355,0.0,0.0,87,-99.99,,,-99.99,,2013-05-02 14:42:00,
2013-05-02 09:52:00,51.0,48.0,-100.00,North,0,0.0,0.0,88,-99.99,,,-99.99,,2013-05-02 14:52:00,
2013-05-02 10:02:00,51.0,48.0,-100.00,North,0,0.0,0.0,88,-99.99,,,-99.99,,2013-05-02 15:02:00,
2013-05-02 10:12:00,51.0,48.0,-100.00,NNW,345,0.0,0.0,88,-99.99,,,-99.99,,2013-05-02 15:12:00,
2013-05-02 10:22:00,52.0,48.0,-100.00,NNW,340,0.0,0.0,86,-99.99,,,-99.99,,2013-05-02 15:22:00,
2013-05-02 10:33:00,52.0,48.0,-100.00,NNW,340,0.0,0.0,86,-99.99,,,-99.99,,2013-05-02 15:33:00,
2013-05-02 10:43:00,52.0,48.0,-100.00,North,0,0.0,0.0,87,-99.99,,,-99.99,,2013-05-02 15:43:00,
2013-05-02 11:03:00,51.0,48.0,-100.00,North,0,0.0,0.0,92,-99.99,,,-99.99,,2013-05-02 16:03:00,
2013-05-02 11:13:00,52.0,50.0,-100.00,North,0,0.0,0.0,92,-99.99,,,-99.99,,2013-05-02 16:13:00,
2013-05-02 11:22:00,53.0,49.0,-100.00,North,0,0.0,0.0,88,-99.99,,,-99.99,,2013-05-02 16:22:00,
2013-05-02 11:32:00,53.0,49.0,-100.00,North,0,0.0,0.0,88,-99.99,,,-99.99,,2013-05-02 16:32:00,
2013-05-02 11:43:00,53.0,49.0,-100.00,North,0,0.0,0.0,88,-99.99,,,-99.99,,2013-05-02 16:43:00,
2013-05-02 11:52:00,54.0,49.0,-100.00,NNW,330,0.0,0.0,85,-99.99,,,-99.99,,2013-05-02 16:52:00,
2013-05-02 12:02:00,54.0,49.0,-100.00,NNW,330,0.0,0.0,85,-99.99,,,-99.99,,2013-05-02 17:02:00,
2013-05-02 12:12:00,54.0,49.0,-100.00,NNE,15,0.0,0.0,84,-99.99,,,-99.99,,2013-05-02 17:12:00,
2013-05-02 12:22:00,56.0,50.0,-100.00,NW,325,0.0,0.0,82,-99.99,,,-99.99,,2013-05-02 17:22:00,
2013-05-02 12:32:00,56.0,50.0,-100.00,NW,325,0.0,0.0,82,-99.99,,,-99.99,,2013-05-02 17:32:00,
2013-05-02 12:42:00,54.0,49.0,-100.00,North,5,0.0,0.0,83,-99.99,,,-99.99,,2013-05-02 17:42:00,
2013-05-02 12:52:00,53.0,49.0,-100.00,NW,315,0.0,0.0,85,-99.99,,,-99.99,,2013-05-02 17:52:00,
2013-05-02 13:01:00,53.0,49.0,-100.00,NW,315,0.0,0.0,85,-99.99,,,-99.99,,2013-05-02 18:01:00,
2013-05-02 13:11:00,54.0,49.0,-100.00,North,350,0.0,0.0,84,-99.99,,,-99.99,,2013-05-02 18:11:00,
2013-05-02 13:21:00,54.0,50.0,-100.00,NW,325,0.0,0.0,84,-99.99,,,-99.99,,2013-05-02 18:21:00,
2013-05-02 13:32:00,54.0,50.0,-100.00,NW,325,0.0,0.0,84,-99.99,,,-99.99,,2013-05-02 18:32:00,
2013-05-02 13:42:00,55.0,49.0,-100.00,NNW,335,0.0,0.0,82,-99.99,,,-99.99,,2013-05-02 18:42:00,
2013-05-02 13:52:00,55.0,49.0,-100.00,North,355,0.0,0.0,82,-99.99,,,-99.99,,2013-05-02 18:52:00,
2013-05-02 14:01:00,55.0,49.0,-100.00,North,355,0.0,0.0,82,-99.99,,,-99.99,,2013-05-02 19:01:00,
2013-05-02 14:11:00,55.0,49.0,-100.00,NNW,345,0.0,0.0,82,-99.99,,,-99.99,,2013-05-02 19:11:00,
2013-05-02 14:22:00,55.0,50.0,-100.00,NW,320,0.0,0.0,82,-99.99,,,-99.99,,2013-05-02 19:22:00,
2013-05-02 14:32:00,55.0,50.0,-100.00,NW,320,0.0,0.0,82,-99.99,,,-99.99,,2013-05-02 19:32:00,
2013-05-02 14:42:00,54.0,49.0,-100.00,North,0,0.0,0.0,82,-99.99,,,-99.99,,2013-05-02 19:42:00,
2013-05-02 14:52:00,54.0,49.0,-100.00,North,350,0.0,0.0,82,-99.99,,,-99.99,,2013-05-02 19:52:00,
2013-05-02 15:02:00,54.0,49.0,-100.00,North,350,0.0,0.0,82,-99.99,,,-99.99,,2013-05-02 20:02:00,
2013-05-02 15:11:00,54.0,49.0,-100.00,NW,320,0.0,0.0,81,-99.99,,,-99.99,,2013-05-02 20:11:00,
2013-05-02 15:22:00,54.0,48.0,-100.00,NW,325,0.0,0.0,80,-99.99,,,-99.99,,2013-05-02 20:22:00,
2013-05-02 15:32:00,54.0,48.0,-100.00,NW,325,0.0,0.0,80,-99.99,,,-99.99,,2013-05-02 20:32:00,
2013-05-02 15:41:00,54.0,48.0,-100.00,North,350,0.0,0.0,80,-99.99,,,-99.99,,2013-05-02 20:41:00,
2013-05-02 15:52:00,54.0,47.0,-100.00,NNW,340,0.0,0.0,79,-99.99,,,-99.99,,2013-05-02 20:52:00,
2013-05-02 16:01:00,54.0,47.0,-100.00,NNW,340,0.0,0.0,79,-99.99,,,-99.99,,2013-05-02 21:01:00,
2013-05-02 16:11:00,53.0,47.0,-100.00,NNW,340,0.0,0.0,78,-99.99,,,-99.99,,2013-05-02 21:11:00,
2013-05-02 16:21:00,53.0,46.0,-100.00,North,0,0.0,0.0,78,-99.99,,,-99.99,,2013-05-02 21:21:00,
2013-05-02 16:33:00,53.0,46.0,-100.00,North,0,0.0,0.0,78,-99.99,,,-99.99,,2013-05-02 21:33:00,
2013-05-02 16:42:00,53.0,46.0,-100.00,North,0,0.0,0.0,79,-99.99,,,-99.99,,2013-05-02 21:42:00,
2013-05-02 16:53:00,51.0,45.0,-100.00,NNW,335,0.0,0.0,81,-99.99,,,-99.99,,2013-05-02 21:53:00,
2013-05-02 17:03:00,51.0,45.0,-100.00,NNW,335,0.0,0.0,81,-99.99,,,-99.99,,2013-05-02 22:03:00,
2013-05-02 17:12:00,50.0,45.0,-100.00,North,0,0.0,0.0,82,-99.99,,,-99.99,,2013-05-02 22:12:00,
2013-05-02 17:22:00,50.0,45.0,-100.00,North,0,0.0,0.0,82,-99.99,,,-99.99,,2013-05-02 22:22:00,
2013-05-02 17:32:00,50.0,45.0,-100.00,North,0,0.0,0.0,82,-99.99,,,-99.99,,2013-05-02 22:32:00,
2013-05-02 17:42:00,49.0,44.0,-100.00,North,0,0.0,0.0,82,-99.99,,,-99.99,,2013-05-02 22:42:00,
2013-05-02 17:53:00,49.0,44.0,-100.00,North,0,0.0,0.0,82,-99.99,,,-99.99,,2013-05-02 22:53:00,
2013-05-02 18:02:00,49.0,44.0,-100.00,North,0,0.0,0.0,82,-99.99,,,-99.99,,2013-05-02 23:02:00,
2013-05-02 18:11:00,48.0,43.0,-100.00,North,0,0.0,0.0,84,-99.99,,,-99.99,,2013-05-02 23:11:00,
2013-05-02 18:22:00,47.0,43.0,-100.00,NNW,345,0.0,0.0,86,-99.99,,,-99.99,,2013-05-02 23:22:00,
2013-05-02 18:32:00,47.0,43.0,-100.00,NNW,345,0.0,0.0,86,-99.99,,,-99.99,,2013-05-02 23:32:00,
2013-05-02 18:42:00,47.0,43.0,-100.00,NNW,330,0.0,0.0,88,-99.99,,,-99.99,,2013-05-02 23:42:00,
2013-05-02 18:52:00,46.0,43.0,-100.00,North,0,0.0,0.0,90,-99.99,,,-99.99,,2013-05-02 23:52:00,
2013-05-02 19:01:00,46.0,43.0,-100.00,North,0,0.0,0.0,90,-99.99,,,-99.99,,2013-05-03 00:01:00,
2013-05-02 19:11:00,45.0,43.0,-100.00,North,0,0.0,0.0,90,-99.99,,,-99.99,,2013-05-03 00:11:00,
2013-05-02 19:21:00,45.0,43.0,-100.00,NNW,335,0.0,0.0,92,-99.99,,,-99.99,,2013-05-03 00:21:00,
2013-05-02 19:31:00,45.0,43.0,-100.00,NNW,335,0.0,0.0,92,-99.99,,,-99.99,,2013-05-03 00:31:00,
2013-05-02 19:42:00,45.0,43.0,-100.00,NNW,335,0.0,0.0,92,-99.99,,,-99.99,,2013-05-03 00:42:00,
2013-05-02 19:52:00,44.0,43.0,-100.00,North,0,0.0,0.0,95,-99.99,,,-99.99,,2013-05-03 00:52:00,
2013-05-02 20:01:00,44.0,43.0,-100.00,North,0,0.0,0.0,95,-99.99,,,-99.99,,2013-05-03 01:01:00,
2013-05-02 20:11:00,43.0,43.0,-100.00,North,355,0.0,0.0,97,-99.99,,,-99.99,,2013-05-03 01:11:00,
2013-05-02 20:21:00,43.0,43.0,-100.00,NNW,335,0.0,0.0,98,-99.99,,,-99.99,,2013-05-03 01:21:00,
2013-05-02 20:31:00,43.0,43.0,-100.00,NNW,335,0.0,0.0,98,-99.99,,,-99.99,,2013-05-03 01:31:00,
2013-05-02 20:42:00,43.0,42.0,-100.00,North,0,0.0,0.0,99,-99.99,,,-99.99,,2013-05-03 01:42:00,
2013-05-02 20:52:00,42.0,42.0,-100.00,North,0,0.0,0.0,99,-99.99,,,-99.99,,2013-05-03 01:52:00,
2013-05-02 21:01:00,42.0,42.0,-100.00,North,0,0.0,0.0,99,-99.99,,,-99.99,,2013-05-03 02:01:00,
2013-05-02 21:11:00,42.0,41.0,-100.00,North,0,0.0,0.0,99,-99.99,,,-99.99,,2013-05-03 02:11:00,
2013-05-02 21:21:00,42.0,41.0,-100.00,North,0,0.0,0.0,99,-99.99,,,-99.99,,2013-05-03 02:21:00,
2013-05-02 21:32:00,42.0,41.0,-100.00,North,0,0.0,0.0,99,-99.99,,,-99.99,,2013-05-03 02:32:00,
2013-05-02 21:42:00,41.0,41.0,-100.00,North,0,0.0,0.0,99,-99.99,,,-99.99,,2013-05-03 02:42:00,
2013-05-02 21:52:00,41.0,41.0,-100.00,North,0,0.0,0.0,99,-99.99,,,-99.99,,2013-05-03 02:52:00,
2013-05-02 22:01:00,41.0,41.0,-100.00,North,0,0.0,0.0,99,-99.99,,,-99.99,,2013-05-03 03:01:00,
2013-05-02 22:11:00,41.0,41.0,-100.00,North,0,0.0,0.0,99,-99.99,,,-99.99,,2013-05-03 03:11:00,
2013-05-02 22:21:00,41.0,41.0,-100.00,NNE,25,0.0,0.0,99,-99.99,,,-99.99,,2013-05-03 03:21:00,
2013-05-02 22:33:00,41.0,41.0,-100.00,NNE,25,0.0,0.0,99,-99.99,,,-99.99,,2013-05-03 03:33:00,
2013-05-02 22:42:00,41.0,41.0,-100.00,North,0,0.0,0.0,99,-99.99,,,-99.99,,2013-05-03 03:42:00,
2013-05-02 22:53:00,41.0,41.0,-100.00,North,350,0.0,0.0,99,-99.99,,,-99.99,,2013-05-03 03:53:00,
2013-05-02 23:03:00,41.0,41.0,-100.00,North,350,0.0,0.0,99,-99.99,,,-99.99,,2013-05-03 04:03:00,
2013-05-02 23:12:00,41.0,41.0,-100.00,NNW,340,0.0,0.0,99,-99.99,,,-99.99,,2013-05-03 04:12:00,
2013-05-02 23:23:00,41.0,40.0,-100.00,North,355,0.0,0.0,99,-99.99,,,-99.99,,2013-05-03 04:23:00,
2013-05-02 23:32:00,41.0,40.0,-100.00,North,355,0.0,0.0,99,-99.99,,,-99.99,,2013-05-03 04:32:00,
2013-05-02 23:42:00,41.0,40.0,-100.00,North,10,0.0,0.0,99,-99.99,,,-99.99,,2013-05-03 04:42:00,
2013-05-02 23:53:00,40.0,40.0,-100.00,NNW,345,0.0,0.0,99,-99.99,,,-99.99,,2013-05-03 04:53:00,